Pawtucket, RI

4:03 AM EDT on March 30, 2017 (GMT -0400)
North Central State

Weather History for KSFZ - May, 2014

Change the Weather History Date:

Monday, May 26, 2014

  Actual Average Record
Temperature  
Mean Temperature 52 °F -  
Max Temperature 69 °F 66 °F 82 °F (2007)
Min Temperature 48 °F 47 °F 44 °F (2002)
Degree Days  
Heating Degree Days 12    
Growing Degree Days 2 (Base 50)    
Moisture  
Dew Point 47 °F    
Average Humidity 83    
Maximum Humidity 88    
Minimum Humidity 53    
Precipitation  
Precipitation 0.02 in - - ()
Sea Level Pressure  
Sea Level Pressure 29.94 in    
Wind  
Wind Speed 5 mph (SW)    
Max Wind Speed 15 mph    
Max Gust Speed 20 mph    
Visibility 9 miles    
Events      
Averages and records for this station are not official NWS values.
T = Trace of Precipitation, MM = Missing Value Source: NWS Daily Summary

Daily Weather History Graph

Daily Weather History Graph

Search for Another Location

Airport or City:

Trip Planner

Search our weather history database for the weather conditions in past years. The results will help you decide how hot, cold, wet, or windy it might be!

Date:

Astronomy

May. 26, 2014 Rise Set
Actual Time 5:16 AM EDT 8:09 PM EDT
Civil Twilight 4:43 AM EDT 8:43 PM EDT
Nautical Twilight 4:01 AM EDT 9:24 PM EDT
Astronomical Twilight 3:13 AM EDT 10:13 PM EDT
Moon 3:59 AM EDT (5/26) 6:07 PM EDT (5/26)
Length of Visible Light 15h 59m
Length of Day
14h 53m
Waning Crescent, 5% of the Moon is Illuminated
May 26
Waning Crescent
May 28
New
Jun 5
First Quarter
Jun 13
Full
Jun 19
Last Quarter

Hourly Weather History & Observations

Time (EDT) Temp. Dew Point Humidity Pressure Visibility Wind Dir Wind Speed Gust Speed Precip Events Conditions
12:15 AM 53.6 °F 48.2 °F 82% 30.05 in 10.0 mi SSW 4.6 mph - N/A   Clear
12:35 AM 51.8 °F 48.2 °F 88% 30.05 in 10.0 mi South 3.5 mph - N/A   Clear
12:55 AM 51.8 °F 48.2 °F 88% 30.04 in 10.0 mi SSW 4.6 mph - N/A   Clear
1:15 AM 51.8 °F 48.2 °F 88% 30.03 in 10.0 mi South 4.6 mph - N/A   Clear
1:35 AM 51.8 °F 46.4 °F 82% 30.03 in 9.0 mi South 3.5 mph - N/A   Clear
1:55 AM 51.8 °F 46.4 °F 82% 30.02 in 9.0 mi SSW 4.6 mph - N/A   Clear
2:15 AM 51.8 °F 46.4 °F 82% 30.02 in 8.0 mi SSW 3.5 mph - N/A   Clear
2:35 AM 51.8 °F 46.4 °F 82% 30.01 in 8.0 mi SSW 3.5 mph - N/A   Clear
2:55 AM 51.8 °F 46.4 °F 82% 30.01 in 7.0 mi SSW 3.5 mph - N/A   Clear
3:15 AM 51.8 °F 46.4 °F 82% 30.00 in 6.0 mi SSW 3.5 mph - N/A   Clear
3:35 AM 50.0 °F 46.4 °F 87% 30.00 in 6.0 mi SSW 3.5 mph - N/A   Clear
3:55 AM 48.2 °F 44.6 °F 87% 30.00 in 5.0 mi SSW 3.5 mph - N/A   Clear
4:15 AM 48.2 °F 44.6 °F 87% 30.00 in 4.0 mi SW 3.5 mph - N/A   Clear
4:35 AM 48.2 °F 44.6 °F 87% 30.00 in 4.0 mi SSW 3.5 mph - N/A   Clear
4:55 AM 48.2 °F 44.6 °F 87% 29.99 in 5.0 mi SSW 3.5 mph - N/A   Clear
5:15 AM 48.2 °F 44.6 °F 87% 29.99 in 6.0 mi SSW 3.5 mph - N/A   Clear
5:35 AM 50.0 °F 46.4 °F 87% 30.00 in 9.0 mi SW 3.5 mph - N/A   Clear
5:55 AM 51.8 °F 46.4 °F 82% 30.00 in 10.0 mi SW 3.5 mph - N/A   Clear
6:15 AM 53.6 °F 48.2 °F 82% 30.01 in 10.0 mi SW 3.5 mph - N/A   Scattered Clouds
6:35 AM 55.4 °F 50.0 °F 82% 30.01 in 10.0 mi SW 3.5 mph - N/A   Mostly Cloudy
6:55 AM 57.2 °F 50.0 °F 77% 30.02 in 10.0 mi West 6.9 mph - N/A   Overcast
7:15 AM - - N/A% 30.02 in 10.0 mi West 15.0 mph 19.6 mph N/A   Overcast
7:35 AM 57.2 °F 51.8 °F 82% 30.01 in 10.0 mi WSW 6.9 mph - 0.01 in   Mostly Cloudy
7:55 AM - - N/A% 30.01 in 10.0 mi WSW 5.8 mph - 0.01 in   Overcast
8:15 AM - - N/A% 30.01 in 10.0 mi WSW 4.6 mph - N/A   Overcast
8:35 AM - - N/A% 30.01 in 10.0 mi WSW 3.5 mph - N/A   Overcast
8:55 AM - - N/A% 30.00 in 10.0 mi WSW 8.1 mph - N/A   Mostly Cloudy
9:15 AM - - N/A% 29.99 in 10.0 mi WSW 5.8 mph - 0.01 in   Overcast
9:35 AM - - N/A% 29.98 in 10.0 mi SW 5.8 mph - 0.01 in   Overcast
9:55 AM - - N/A% 29.98 in 10.0 mi SW 5.8 mph - 0.01 in   Mostly Cloudy
10:15 AM - - N/A% 29.97 in 10.0 mi WSW 4.6 mph - N/A   Mostly Cloudy
10:35 AM - - N/A% 29.97 in 10.0 mi WSW 4.6 mph - N/A   Scattered Clouds
10:55 AM 69.8 °F 51.8 °F 53% 29.97 in 10.0 mi WSW 8.1 mph 18.4 mph N/A   Partly Cloudy
11:15 AM - - N/A% 29.97 in 10.0 mi WSW 8.1 mph 16.1 mph N/A   Clear
11:35 AM - - N/A% 29.96 in 10.0 mi WSW 9.2 mph - N/A   Clear
11:55 AM - - N/A% 29.96 in 10.0 mi WSW 8.1 mph - N/A   Scattered Clouds
12:15 PM - - N/A% 29.95 in 10.0 mi WSW 6.9 mph - N/A   Scattered Clouds
12:35 PM - - N/A% 29.95 in 10.0 mi WSW 5.8 mph - N/A   Partly Cloudy
12:55 PM - - N/A% 29.94 in 10.0 mi WSW 9.2 mph - N/A   Partly Cloudy
1:15 PM - - N/A% 29.94 in 10.0 mi WSW 5.8 mph - N/A   Partly Cloudy
1:35 PM - - N/A% 29.94 in 10.0 mi West 5.8 mph - N/A   Partly Cloudy
1:55 PM - - N/A% 29.93 in 10.0 mi SW 4.6 mph - N/A   Partly Cloudy
2:15 PM - - N/A% 29.92 in 10.0 mi WSW 4.6 mph - N/A   Scattered Clouds
2:35 PM - - N/A% 29.91 in 10.0 mi SW 5.8 mph - N/A   Clear
2:55 PM - - N/A% 29.90 in 10.0 mi SW 6.9 mph - N/A   Mostly Cloudy
3:35 PM - - N/A% 29.89 in 10.0 mi WSW 8.1 mph - N/A   Partly Cloudy
3:55 PM - - N/A% 29.88 in 10.0 mi WSW 6.9 mph - N/A   Clear
4:15 PM - - N/A% 29.88 in 10.0 mi WSW 4.6 mph - N/A   Clear
4:35 PM - - N/A% 29.87 in 10.0 mi WSW 5.8 mph - N/A   Clear
4:55 PM - - N/A% 29.87 in 10.0 mi SW 4.6 mph - N/A   Clear
5:15 PM - - N/A% 29.86 in 10.0 mi SW 6.9 mph - N/A   Clear
5:35 PM - - N/A% 29.85 in 10.0 mi SW 5.8 mph - N/A   Clear
5:55 PM - - N/A% 29.84 in 10.0 mi SSW 5.8 mph - N/A   Clear
6:15 PM - - N/A% 29.84 in 10.0 mi SSW 4.6 mph - N/A   Clear
6:35 PM - - N/A% 29.84 in 10.0 mi SSW 4.6 mph - N/A   Clear
6:55 PM - - N/A% 29.84 in 10.0 mi SSW 3.5 mph - N/A   Clear
7:15 PM - - N/A% 29.84 in 10.0 mi South 3.5 mph - N/A   Clear
7:35 PM - - N/A% 29.85 in 10.0 mi SSW 3.5 mph - N/A   Clear
7:55 PM - - N/A% 29.85 in 10.0 mi SW 3.5 mph - N/A   Clear
8:15 PM - - N/A% 29.85 in 10.0 mi SW 3.5 mph - N/A   Clear
8:35 PM - - N/A% 29.85 in 10.0 mi Calm Calm - N/A   Clear
8:55 PM - - N/A% 29.86 in 10.0 mi WSW 3.5 mph - N/A   Clear
9:15 PM - - N/A% 29.86 in 10.0 mi WSW 4.6 mph - N/A   Clear
9:35 PM - - N/A% 29.86 in 10.0 mi WSW 4.6 mph - N/A   Clear
9:55 PM - - N/A% 29.86 in 10.0 mi WSW 4.6 mph - N/A   Clear
10:15 PM - - N/A% 29.86 in 10.0 mi WSW 4.6 mph - N/A   Clear
10:35 PM - - N/A% 29.86 in 10.0 mi SW 3.5 mph - N/A   Clear
10:55 PM - - N/A% 29.86 in 10.0 mi SW 3.5 mph - N/A   Clear
11:15 PM - - N/A% 29.87 in 10.0 mi WSW 4.6 mph - N/A   Clear
11:35 PM - - N/A% 29.86 in 10.0 mi WSW 4.6 mph - N/A   Clear
11:55 PM - - N/A% 29.86 in 10.0 mi WSW 3.5 mph - N/A   Clear